Location: Claflin County Park
(44.8478°N, 87.5507°W)
Time: 21:28:50
(UTC+00:00)

FengYun 1-2 T - Pass Details

Date: 10 December 2025
Orbit: 845 x 879 km, 98.8° (Epoch: 21 January)

Event Time Altitude Azimuth Distance (km) Brightness Sun altitude
Rises 10:30:30 0° 15° (NNE) 3,487 7.5 -28.6°
Reaches altitude 10° 10:32:54 10° 17° (NNE) 2,545 6.8 -28.2°
Maximum altitude 10:38:35 78° 104° (ESE) 903 4.3 -27.1°
Drops below altitude 10° 10:44:13 10° 191° (S) 2,524 6.6 -26.2°
Sets 10:46:36 0° 192° (SSW) 3,456 7.3 -25.7°
